Time,TemperatureF,DewpointF,PressureIn,WindDirection,WindDirectionDegrees,WindSpeedMPH,WindSpeedGustMPH,Humidity,HourlyPrecipIn,Conditions,Clouds,dailyrainin,SoftwareType,DateUTC
2013-06-09 00:03:00,69.3,59.5,30.09,WSW,247,1.0,4.0,71,0.00,,,-99.99,WeatherLink 5.7,2013-06-09 04:03:00,
2013-06-09 00:13:00,68.8,59.4,30.10,WSW,247,2.0,4.0,72,0.00,,,-99.99,WeatherLink 5.7,2013-06-09 04:13:00,
2013-06-09 00:23:00,68.5,59.1,30.10,WSW,247,2.0,4.0,72,0.00,,,-99.99,WeatherLink 5.7,2013-06-09 04:23:00,
2013-06-09 00:33:00,68.4,59.0,30.10,WSW,247,2.0,4.0,72,0.00,,,-99.99,WeatherLink 5.7,2013-06-09 04:33:00,
2013-06-09 00:43:00,68.0,59.0,30.11,WSW,247,2.0,5.0,73,0.00,,,-99.99,WeatherLink 5.7,2013-06-09 04:43:00,
2013-06-09 00:53:00,67.9,58.9,30.11,WSW,247,2.0,5.0,73,0.00,,,-99.99,WeatherLink 5.7,2013-06-09 04:53:00,
2013-06-09 01:03:00,67.7,59.1,30.11,WSW,247,1.0,3.0,74,0.00,,,-99.99,WeatherLink 5.7,2013-06-09 05:03:00,
2013-06-09 01:13:00,67.3,59.1,30.12,WSW,247,1.0,3.0,75,0.00,,,-99.99,WeatherLink 5.7,2013-06-09 05:13:00,
2013-06-09 01:23:00,66.6,59.5,30.11,WSW,247,1.0,4.0,78,0.00,,,-99.99,WeatherLink 5.7,2013-06-09 05:23:00,
2013-06-09 01:33:00,66.3,59.6,30.11,WSW,247,1.0,3.0,79,0.00,,,-99.99,WeatherLink 5.7,2013-06-09 05:33:00,
2013-06-09 01:43:00,66.0,59.3,30.11,WSW,247,2.0,6.0,79,0.00,,,-99.99,WeatherLink 5.7,2013-06-09 05:43:00,
2013-06-09 01:54:00,65.9,59.6,30.11,WSW,247,1.0,4.0,80,0.00,,,-99.99,WeatherLink 5.7,2013-06-09 05:54:00,
2013-06-09 02:03:00,65.7,59.4,30.11,WSW,247,1.0,4.0,80,0.00,,,-99.99,WeatherLink 5.7,2013-06-09 06:03:00,
2013-06-09 02:13:00,65.5,59.2,30.11,WSW,247,1.0,4.0,80,0.00,,,-99.99,WeatherLink 5.7,2013-06-09 06:13:00,
2013-06-09 02:24:00,65.8,58.7,30.11,WSW,247,1.0,3.0,78,0.00,,,-99.99,WeatherLink 5.7,2013-06-09 06:24:00,
2013-06-09 02:34:00,65.9,58.5,30.12,WSW,247,1.0,3.0,77,0.00,,,-99.99,WeatherLink 5.7,2013-06-09 06:34:00,
2013-06-09 02:43:00,65.6,58.6,30.12,WSW,247,1.0,3.0,78,0.00,,,-99.99,WeatherLink 5.7,2013-06-09 06:43:00,
2013-06-09 02:53:00,65.4,58.4,30.12,WSW,247,1.0,3.0,78,0.00,,,-99.99,WeatherLink 5.7,2013-06-09 06:53:00,
2013-06-09 03:03:00,65.4,58.4,30.12,WSW,247,0.0,3.0,78,0.00,,,-99.99,WeatherLink 5.7,2013-06-09 07:03:00,
2013-06-09 03:14:00,65.2,58.2,30.12,WSW,247,0.0,1.0,78,0.00,,,-99.99,WeatherLink 5.7,2013-06-09 07:14:00,
2013-06-09 03:24:00,65.1,58.1,30.12,WSW,247,0.0,2.0,78,0.00,,,-99.99,WeatherLink 5.7,2013-06-09 07:24:00,
2013-06-09 03:34:00,64.9,57.5,30.12,WSW,247,0.0,2.0,77,0.00,,,-99.99,WeatherLink 5.7,2013-06-09 07:34:00,
2013-06-09 03:44:00,64.7,57.3,30.12,WSW,247,2.0,4.0,77,0.00,,,-99.99,WeatherLink 5.7,2013-06-09 07:44:00,
2013-06-09 03:54:00,64.5,57.5,30.12,WSW,247,1.0,3.0,78,0.00,,,-99.99,WeatherLink 5.7,2013-06-09 07:54:00,
2013-06-09 04:03:00,64.6,57.2,30.12,WSW,247,0.0,2.0,77,0.00,,,-99.99,WeatherLink 5.7,2013-06-09 08:03:00,
2013-06-09 04:13:00,64.7,57.3,30.13,WSW,247,0.0,1.0,77,0.00,,,-99.99,WeatherLink 5.7,2013-06-09 08:13:00,
2013-06-09 04:23:00,64.2,57.2,30.13,WSW,247,0.0,2.0,78,0.00,,,-99.99,WeatherLink 5.7,2013-06-09 08:23:00,
2013-06-09 04:34:00,63.6,57.3,30.14,WSW,247,1.0,2.0,80,0.00,,,-99.99,WeatherLink 5.7,2013-06-09 08:34:00,
2013-06-09 04:43:00,63.4,57.1,30.14,WSW,247,0.0,2.0,80,0.00,,,-99.99,WeatherLink 5.7,2013-06-09 08:43:00,
2013-06-09 04:53:00,63.1,57.2,30.15,WSW,247,0.0,2.0,81,0.00,,,-99.99,WeatherLink 5.7,2013-06-09 08:53:00,
2013-06-09 05:03:00,63.1,57.2,30.16,WSW,247,0.0,2.0,81,0.00,,,-99.99,WeatherLink 5.7,2013-06-09 09:03:00,
2013-06-09 05:13:00,63.1,57.2,30.16,WSW,247,0.0,3.0,81,0.00,,,-99.99,WeatherLink 5.7,2013-06-09 09:13:00,
2013-06-09 05:24:00,63.2,57.3,30.16,WSW,247,0.0,3.0,81,0.00,,,-99.99,WeatherLink 5.7,2013-06-09 09:24:00,
2013-06-09 05:33:00,63.0,57.1,30.16,WSW,247,1.0,3.0,81,0.00,,,-99.99,WeatherLink 5.7,2013-06-09 09:33:00,
2013-06-09 05:44:00,62.8,56.5,30.17,WSW,247,1.0,4.0,80,0.00,,,-99.99,WeatherLink 5.7,2013-06-09 09:44:00,
2013-06-09 05:53:00,62.6,56.7,30.17,WSW,247,1.0,3.0,81,0.00,,,-99.99,WeatherLink 5.7,2013-06-09 09:53:00,
2013-06-09 06:03:00,62.3,56.4,30.18,WSW,247,1.0,4.0,81,0.00,,,-99.99,WeatherLink 5.7,2013-06-09 10:03:00,
2013-06-09 06:13:00,62.2,56.6,30.19,WSW,247,1.0,3.0,82,0.00,,,-99.99,WeatherLink 5.7,2013-06-09 10:13:00,
2013-06-09 06:23:00,62.5,56.6,30.19,WSW,247,1.0,4.0,81,0.00,,,-99.99,WeatherLink 5.7,2013-06-09 10:23:00,
2013-06-09 06:34:00,62.9,56.6,30.18,WSW,247,0.0,3.0,80,0.00,,,-99.99,WeatherLink 5.7,2013-06-09 10:34:00,
2013-06-09 06:43:00,62.9,56.6,30.18,WSW,247,1.0,3.0,80,0.00,,,-99.99,WeatherLink 5.7,2013-06-09 10:43:00,
2013-06-09 06:53:00,63.1,56.8,30.18,WSW,247,0.0,3.0,80,0.00,,,-99.99,WeatherLink 5.7,2013-06-09 10:53:00,
2013-06-09 07:03:00,63.7,57.1,30.19,WSW,247,0.0,2.0,79,0.00,,,-99.99,WeatherLink 5.7,2013-06-09 11:03:00,
2013-06-09 07:14:00,64.3,56.9,30.19,WSW,247,0.0,3.0,77,0.00,,,-99.99,WeatherLink 5.7,2013-06-09 11:14:00,
2013-06-09 07:23:00,65.2,57.4,30.19,WSW,247,0.0,2.0,76,0.00,,,-99.99,WeatherLink 5.7,2013-06-09 11:23:00,
2013-06-09 07:33:00,66.7,57.8,30.19,WSW,247,0.0,2.0,73,0.00,,,-99.99,WeatherLink 5.7,2013-06-09 11:33:00,
2013-06-09 07:43:00,67.6,57.5,30.20,WSW,247,1.0,4.0,70,0.00,,,-99.99,WeatherLink 5.7,2013-06-09 11:43:00,
2013-06-09 07:54:00,68.3,57.7,30.19,WSW,247,0.0,3.0,69,0.00,,,-99.99,WeatherLink 5.7,2013-06-09 11:54:00,
2013-06-09 08:03:00,69.2,57.4,30.20,WSW,247,0.0,1.0,66,0.00,,,-99.99,WeatherLink 5.7,2013-06-09 12:03:00,
2013-06-09 08:13:00,69.6,57.7,30.20,North,-999,0.0,1.0,66,0.00,,,-99.99,WeatherLink 5.7,2013-06-09 12:13:00,
2013-06-09 08:23:00,70.4,56.8,30.21,North,-999,0.0,1.0,62,0.00,,,-99.99,WeatherLink 5.7,2013-06-09 12:23:00,
2013-06-09 08:33:00,70.6,56.9,30.21,WSW,247,1.0,3.0,62,0.00,,,-99.99,WeatherLink 5.7,2013-06-09 12:33:00,
2013-06-09 08:43:00,71.2,56.6,30.21,WSW,247,1.0,4.0,60,0.00,,,-99.99,WeatherLink 5.7,2013-06-09 12:43:00,
2013-06-09 08:53:00,70.9,55.9,30.21,WSW,247,1.0,4.0,59,0.00,,,-99.99,WeatherLink 5.7,2013-06-09 12:53:00,
2013-06-09 09:03:00,70.8,55.3,30.21,WSW,247,3.0,6.0,58,0.00,,,-99.99,WeatherLink 5.7,2013-06-09 13:03:00,
2013-06-09 09:13:00,70.9,52.4,30.21,WSW,247,2.0,6.0,52,0.00,,,-99.99,WeatherLink 5.7,2013-06-09 13:13:00,
2013-06-09 09:23:00,71.6,51.4,30.21,WNW,292,3.0,7.0,49,0.00,,,-99.99,WeatherLink 5.7,2013-06-09 13:23:00,
2013-06-09 09:33:00,72.0,51.8,30.21,WNW,292,3.0,8.0,49,0.00,,,-99.99,WeatherLink 5.7,2013-06-09 13:33:00,
2013-06-09 09:43:00,72.5,51.7,30.21,WNW,292,1.0,4.0,48,0.00,,,-99.99,WeatherLink 5.7,2013-06-09 13:43:00,
2013-06-09 09:54:00,72.9,51.5,30.21,WNW,292,2.0,5.0,47,0.00,,,-99.99,WeatherLink 5.7,2013-06-09 13:54:00,
2013-06-09 10:03:00,73.3,50.7,30.21,WNW,292,2.0,7.0,45,0.00,,,-99.99,WeatherLink 5.7,2013-06-09 14:03:00,
2013-06-09 10:13:00,73.6,50.3,30.21,WNW,292,3.0,9.0,44,0.00,,,-99.99,WeatherLink 5.7,2013-06-09 14:13:00,
2013-06-09 10:24:00,74.0,51.3,30.21,WNW,292,2.0,9.0,45,0.00,,,-99.99,WeatherLink 5.7,2013-06-09 14:24:00,
2013-06-09 10:33:00,74.5,51.2,30.21,West,270,4.0,9.0,44,0.00,,,-99.99,WeatherLink 5.7,2013-06-09 14:33:00,
2013-06-09 10:43:00,74.6,51.2,30.21,NW,315,3.0,10.0,44,0.00,,,-99.99,WeatherLink 5.7,2013-06-09 14:43:00,
2013-06-09 10:53:00,74.6,51.2,30.21,North,0,5.0,11.0,44,0.00,,,-99.99,WeatherLink 5.7,2013-06-09 14:53:00,
2013-06-09 11:03:00,74.6,51.9,30.20,NW,315,2.0,8.0,45,0.00,,,-99.99,WeatherLink 5.7,2013-06-09 15:03:00,
2013-06-09 11:13:00,75.5,52.1,30.20,NW,315,2.0,5.0,44,0.00,,,-99.99,WeatherLink 5.7,2013-06-09 15:13:00,
2013-06-09 11:23:00,75.9,52.4,30.20,NW,315,1.0,5.0,44,0.00,,,-99.99,WeatherLink 5.7,2013-06-09 15:23:00,
2013-06-09 11:33:00,76.1,52.0,30.20,WNW,292,2.0,9.0,43,0.00,,,-99.99,WeatherLink 5.7,2013-06-09 15:33:00,
2013-06-09 11:43:00,76.3,53.4,30.20,WSW,247,3.0,9.0,45,0.00,,,-99.99,WeatherLink 5.7,2013-06-09 15:43:00,
2013-06-09 11:54:00,76.3,53.4,30.20,SW,225,4.0,12.0,45,0.00,,,-99.99,WeatherLink 5.7,2013-06-09 15:54:00,
2013-06-09 12:03:00,76.4,52.9,30.20,SW,225,4.0,10.0,44,0.00,,,-99.99,WeatherLink 5.7,2013-06-09 16:03:00,
2013-06-09 12:14:00,77.0,52.8,30.20,SW,225,2.0,9.0,43,0.00,,,-99.99,WeatherLink 5.7,2013-06-09 16:14:00,
2013-06-09 12:23:00,77.7,53.4,30.20,SW,225,4.0,10.0,43,0.00,,,-99.99,WeatherLink 5.7,2013-06-09 16:23:00,
2013-06-09 12:34:00,77.4,52.5,30.20,West,270,4.0,14.0,42,0.00,,,-99.99,WeatherLink 5.7,2013-06-09 16:34:00,
2013-06-09 12:43:00,77.6,53.3,30.20,West,270,4.0,10.0,43,0.00,,,-99.99,WeatherLink 5.7,2013-06-09 16:43:00,
2013-06-09 12:53:00,77.4,54.4,30.19,SW,225,5.0,12.0,45,0.00,,,-99.99,WeatherLink 5.7,2013-06-09 16:53:00,
2013-06-09 13:03:00,78.0,53.0,30.19,West,270,5.0,13.0,42,0.00,,,-99.99,WeatherLink 5.7,2013-06-09 17:03:00,
2013-06-09 13:14:00,78.2,53.2,30.19,WSW,247,5.0,12.0,42,0.00,,,-99.99,WeatherLink 5.7,2013-06-09 17:14:00,
2013-06-09 13:23:00,78.6,54.2,30.19,West,270,5.0,12.0,43,0.00,,,-99.99,WeatherLink 5.7,2013-06-09 17:23:00,
2013-06-09 13:33:00,78.3,53.3,30.19,West,270,5.0,15.0,42,0.00,,,-99.99,WeatherLink 5.7,2013-06-09 17:33:00,
2013-06-09 13:43:00,78.4,54.0,30.19,SW,225,6.0,13.0,43,0.00,,,-99.99,WeatherLink 5.7,2013-06-09 17:43:00,
2013-06-09 13:53:00,78.6,54.2,30.19,SW,225,5.0,14.0,43,0.00,,,-99.99,WeatherLink 5.7,2013-06-09 17:53:00,
2013-06-09 14:03:00,78.9,53.9,30.18,SW,225,5.0,14.0,42,0.00,,,-99.99,WeatherLink 5.7,2013-06-09 18:03:00,
2013-06-09 14:13:00,79.1,53.4,30.19,West,270,8.0,16.0,41,0.00,,,-99.99,WeatherLink 5.7,2013-06-09 18:13:00,
2013-06-09 14:24:00,78.8,51.0,30.18,West,270,8.0,16.0,38,0.00,,,-99.99,WeatherLink 5.7,2013-06-09 18:24:00,
2013-06-09 14:33:00,79.4,51.6,30.18,West,270,6.0,13.0,38,0.00,,,-99.99,WeatherLink 5.7,2013-06-09 18:33:00,
2013-06-09 14:43:00,79.6,52.5,30.18,West,270,6.0,12.0,39,0.00,,,-99.99,WeatherLink 5.7,2013-06-09 18:43:00,
2013-06-09 14:53:00,79.6,53.1,30.18,SW,225,6.0,14.0,40,0.00,,,-99.99,WeatherLink 5.7,2013-06-09 18:53:00,
2013-06-09 15:03:00,79.9,52.7,30.18,West,270,7.0,16.0,39,0.00,,,-99.99,WeatherLink 5.7,2013-06-09 19:03:00,
2013-06-09 15:13:00,79.6,53.1,30.18,SW,225,6.0,16.0,40,0.00,,,-99.99,WeatherLink 5.7,2013-06-09 19:13:00,
2013-06-09 15:23:00,80.1,51.5,30.18,SW,225,6.0,16.0,37,0.00,,,-99.99,WeatherLink 5.7,2013-06-09 19:23:00,
2013-06-09 15:33:00,80.0,50.6,30.18,WSW,247,8.0,16.0,36,0.00,,,-99.99,WeatherLink 5.7,2013-06-09 19:33:00,
2013-06-09 15:43:00,80.3,51.7,30.17,WSW,247,6.0,14.0,37,0.00,,,-99.99,WeatherLink 5.7,2013-06-09 19:43:00,
2013-06-09 15:54:00,80.6,50.4,30.17,SW,225,6.0,15.0,35,0.00,,,-99.99,WeatherLink 5.7,2013-06-09 19:54:00,
2013-06-09 16:03:00,80.8,52.1,30.16,West,270,6.0,17.0,37,0.00,,,-99.99,WeatherLink 5.7,2013-06-09 20:03:00,
2013-06-09 16:13:00,80.6,52.6,30.16,WSW,247,5.0,12.0,38,0.00,,,-99.99,WeatherLink 5.7,2013-06-09 20:13:00,
2013-06-09 16:24:00,81.1,50.9,30.16,West,270,5.0,10.0,35,0.00,,,-99.99,WeatherLink 5.7,2013-06-09 20:24:00,
2013-06-09 16:33:00,81.3,51.0,30.16,WSW,247,5.0,12.0,35,0.00,,,-99.99,WeatherLink 5.7,2013-06-09 20:33:00,
2013-06-09 16:44:00,81.5,52.7,30.16,WSW,247,5.0,12.0,37,0.00,,,-99.99,WeatherLink 5.7,2013-06-09 20:44:00,
2013-06-09 16:53:00,81.4,51.9,30.16,West,270,6.0,13.0,36,0.00,,,-99.99,WeatherLink 5.7,2013-06-09 20:53:00,
2013-06-09 17:03:00,81.0,51.5,30.16,SW,225,5.0,14.0,36,0.00,,,-99.99,WeatherLink 5.7,2013-06-09 21:03:00,
2013-06-09 17:13:00,81.2,50.9,30.16,West,270,4.0,9.0,35,0.00,,,-99.99,WeatherLink 5.7,2013-06-09 21:13:00,
2013-06-09 17:23:00,81.5,51.2,30.16,WSW,247,5.0,12.0,35,0.00,,,-99.99,WeatherLink 5.7,2013-06-09 21:23:00,
2013-06-09 17:33:00,81.2,51.7,30.16,WSW,247,5.0,10.0,36,0.00,,,-99.99,WeatherLink 5.7,2013-06-09 21:33:00,
2013-06-09 17:43:00,81.3,51.8,30.16,WNW,292,4.0,7.0,36,0.00,,,-99.99,WeatherLink 5.7,2013-06-09 21:43:00,
2013-06-09 17:53:00,81.6,52.1,30.16,West,270,4.0,11.0,36,0.00,,,-99.99,WeatherLink 5.7,2013-06-09 21:53:00,
2013-06-09 18:03:00,81.5,52.0,30.16,WNW,292,4.0,9.0,36,0.00,,,-99.99,WeatherLink 5.7,2013-06-09 22:03:00,
2013-06-09 18:13:00,81.3,52.5,30.16,WNW,292,4.0,9.0,37,0.00,,,-99.99,WeatherLink 5.7,2013-06-09 22:13:00,
2013-06-09 18:23:00,81.2,51.7,30.16,West,270,4.0,13.0,36,0.00,,,-99.99,WeatherLink 5.7,2013-06-09 22:23:00,
2013-06-09 18:34:00,81.0,52.3,30.16,West,270,4.0,11.0,37,0.00,,,-99.99,WeatherLink 5.7,2013-06-09 22:34:00,
2013-06-09 18:43:00,81.0,52.3,30.17,WSW,247,2.0,5.0,37,0.00,,,-99.99,WeatherLink 5.7,2013-06-09 22:43:00,
2013-06-09 18:53:00,81.1,51.6,30.17,WSW,247,3.0,8.0,36,0.00,,,-99.99,WeatherLink 5.7,2013-06-09 22:53:00,
2013-06-09 19:03:00,80.8,52.1,30.17,WNW,292,3.0,6.0,37,0.00,,,-99.99,WeatherLink 5.7,2013-06-09 23:03:00,
2013-06-09 19:13:00,80.4,52.5,30.17,WNW,292,3.0,7.0,38,0.00,,,-99.99,WeatherLink 5.7,2013-06-09 23:13:00,
2013-06-09 19:24:00,80.3,51.7,30.17,WNW,292,2.0,7.0,37,0.00,,,-99.99,WeatherLink 5.7,2013-06-09 23:24:00,
2013-06-09 19:34:00,80.4,51.7,30.18,WNW,292,2.0,8.0,37,0.00,,,-99.99,WeatherLink 5.7,2013-06-09 23:34:00,
2013-06-09 19:43:00,80.4,51.7,30.18,WNW,292,3.0,6.0,37,0.00,,,-99.99,WeatherLink 5.7,2013-06-09 23:43:00,
2013-06-09 19:53:00,80.1,52.2,30.18,WNW,292,2.0,6.0,38,0.00,,,-99.99,WeatherLink 5.7,2013-06-09 23:53:00,
2013-06-09 20:03:00,79.9,52.7,30.18,WNW,292,3.0,5.0,39,0.00,,,-99.99,WeatherLink 5.7,2013-06-10 00:03:00,
2013-06-09 20:13:00,79.5,52.4,30.18,WNW,292,2.0,5.0,39,0.00,,,-99.99,WeatherLink 5.7,2013-06-10 00:13:00,
2013-06-09 20:23:00,79.2,52.8,30.18,WNW,292,0.0,3.0,40,0.00,,,-99.99,WeatherLink 5.7,2013-06-10 00:23:00,
2013-06-09 20:33:00,79.0,53.3,30.18,WNW,292,0.0,1.0,41,0.00,,,-99.99,WeatherLink 5.7,2013-06-10 00:33:00,
2013-06-09 20:44:00,78.5,53.5,30.19,WNW,292,0.0,1.0,42,0.00,,,-99.99,WeatherLink 5.7,2013-06-10 00:44:00,
2013-06-09 20:53:00,78.0,54.9,30.19,WNW,292,0.0,1.0,45,0.00,,,-99.99,WeatherLink 5.7,2013-06-10 00:53:00,
2013-06-09 21:03:00,77.3,53.7,30.19,WNW,292,0.0,1.0,44,0.00,,,-99.99,WeatherLink 5.7,2013-06-10 01:03:00,
2013-06-09 21:13:00,76.8,55.0,30.20,North,-999,0.0,0.0,47,0.00,,,-99.99,WeatherLink 5.7,2013-06-10 01:13:00,
2013-06-09 21:23:00,76.0,55.5,30.20,WNW,292,0.0,1.0,49,0.00,,,-99.99,WeatherLink 5.7,2013-06-10 01:23:00,
2013-06-09 21:33:00,75.0,55.6,30.20,North,-999,0.0,1.0,51,0.00,,,-99.99,WeatherLink 5.7,2013-06-10 01:33:00,
2013-06-09 21:43:00,74.8,55.5,30.21,North,-999,0.0,1.0,51,0.00,,,-99.99,WeatherLink 5.7,2013-06-10 01:43:00,
2013-06-09 21:53:00,74.7,56.4,30.20,WNW,292,0.0,1.0,53,0.00,,,-99.99,WeatherLink 5.7,2013-06-10 01:53:00,
2013-06-09 22:03:00,74.6,56.9,30.21,North,-999,0.0,0.0,54,0.00,,,-99.99,WeatherLink 5.7,2013-06-10 02:03:00,
2013-06-09 22:13:00,74.0,57.3,30.21,North,-999,0.0,1.0,56,0.00,,,-99.99,WeatherLink 5.7,2013-06-10 02:13:00,
2013-06-09 22:24:00,73.2,57.5,30.21,WNW,292,0.0,1.0,58,0.00,,,-99.99,WeatherLink 5.7,2013-06-10 02:24:00,
2013-06-09 22:33:00,73.1,57.9,30.21,WNW,292,0.0,2.0,59,0.00,,,-99.99,WeatherLink 5.7,2013-06-10 02:33:00,
2013-06-09 22:44:00,73.0,58.3,30.21,WNW,292,0.0,2.0,60,0.00,,,-99.99,WeatherLink 5.7,2013-06-10 02:44:00,
2013-06-09 22:53:00,72.8,58.1,30.20,WNW,292,0.0,2.0,60,0.00,,,-99.99,WeatherLink 5.7,2013-06-10 02:53:00,
2013-06-09 23:03:00,72.6,58.4,30.20,North,-999,0.0,0.0,61,0.00,,,-99.99,WeatherLink 5.7,2013-06-10 03:03:00,
2013-06-09 23:14:00,72.4,57.7,30.20,North,-999,0.0,0.0,60,0.00,,,-99.99,WeatherLink 5.7,2013-06-10 03:14:00,
2013-06-09 23:24:00,72.5,58.3,30.19,WNW,292,0.0,1.0,61,0.00,,,-99.99,WeatherLink 5.7,2013-06-10 03:24:00,
2013-06-09 23:34:00,72.0,58.3,30.19,WNW,292,0.0,1.0,62,0.00,,,-99.99,WeatherLink 5.7,2013-06-10 03:34:00,
2013-06-09 23:44:00,71.3,58.5,30.20,North,-999,0.0,0.0,64,0.00,,,-99.99,WeatherLink 5.7,2013-06-10 03:44:00,
2013-06-09 23:54:00,71.2,58.4,30.20,WNW,292,0.0,1.0,64,0.00,,,-99.99,WeatherLink 5.7,2013-06-10 03:54:00,